RH
56 66 74 72 62 65 65 66 59 41 34 34 36 37 37 32 33 36 38 38 37 39 34 36 35 38 42 44 49 63 74 67 68 67 66 73 78 79 80 83 80 84 88 91 94 94 95 94 94 91 89 87 80 84 82 74 75 73 72 73 70 69 65 67 71 64 66 74 77 73 64 64 64 63 63 62 61 59 59 60 61 62 73 88 85 82 75 67 64 62 67 71 80 81 73 73 77
63 70 72 67 61 65 58 58 48 26 30 38 36 35 36 31 32 35 37 36 36 38 36 37 39 40 41 42 44 54 67 65 63 60 64 73 77 79 81 83 83 85 87 89 93 95 98 92 88 92 92 83 73 79 79 70 72 72 73 74 70 70 69 71 69 61 71 78 74 77 79 78 75 68 62 60 61 58 60 62 61 59 61 76 83 82 76 71 65 58 62 66 74 77 74 75 80
63 64 64 64 58 59 55 48 36 24 30 37 38 35 33 33 34 36 37 35 35 36 35 37 38 39 39 42 45 50 59 56 54 55 63 69 70 77 79 83 87 88 88 90 89 92 98 87 81 90 91 88 83 81 79 70 68 68 70 73 69 66 66 66 63 59 68 73 70 77 82 81 79 73 63 59 61 62 68 70 71 66 60 71 79 77 70 68 67 61 61 63 71 77 76 74 75
57 57 56 57 55 57 52 37 24 21 27 32 38 35 32 35 37 38 37 35 34 33 35 38 41 40 38 44 45 48 55 53 54 56 60 63 65 73 77 81 86 85 87 90 87 90 97 85 82 89 87 91 88 80 80 76 71 69 72 77 75 71 68 64 63 63 66 71 75 82 84 82 81 77 71 65 64 69 76 76 78 70 62 73 76 69 64 62 68 70 64 64 76 80 79 79 76
50 51 50 51 52 50 39 23 18 20 24 25 32 36 32 34 37 39 37 36 34 33 35 36 43 44 40 44 42 49 55 54 57 56 58 64 68 72 76 79 80 80 82 85 83 86 94 88 85 84 82 87 84 78 79 82 82 78 79 79 77 80 78 69 65 69 71 71 74 80 82 79 76 73 75 74 72 75 78 76 77 76 76 80 70 62 62 60 65 69 62 65 80 85 82 78 77
45 47 47 49 48 45 33 20 18 19 23 21 27 34 31 33 36 39 38 36 34 33 33 34 40 42 44 46 43 49 53 53 57 56 59 66 70 72 76 75 75 77 79 82 79 80 87 85 80 77 76 77 78 80 78 82 86 81 79 71 65 76 83 75 68 73 75 69 67 70 71 67 64 69 78 80 78 76 74 76 82 87 84 75 63 57 58 56 57 57 56 61 72 85 83 74 80
43 47 46 49 48 40 28 18 19 19 23 22 23 30 30 32 33 37 40 39 38 35 33 34 35 39 45 47 49 52 53 55 54 56 61 66 70 73 73 70 73 76 77 78 75 78 82 79 77 76 75 72 74 79 76 79 81 79 80 74 63 68 83 82 76 79 74 68 67 66 65 62 63 72 78 78 75 68 71 82 86 81 72 63 59 56 56 58 62 60 61 65 69 85 86 77 84
43 45 40 44 39 25 19 18 21 20 22 23 23 28 30 31 32 35 38 38 39 36 35 35 33 42 47 43 52 56 57 61 59 61 65 67 70 71 70 67 70 73 74 75 76 83 81 78 80 80 77 75 78 78 77 78 77 77 77 80 74 67 77 81 82 82 72 71 70 70 75 74 75 75 72 69 61 56 71 89 81 67 64 60 56 57 60 66 75 78 80 78 71 82 88 84 82
41 42 36 37 28 17 19 19 21 22 22 24 25 29 31 31 32 33 35 36 36 36 34 33 32 43 48 44 53 54 57 66 64 64 66 67 69 70 69 66 69 70 72 75 79 86 84 79 82 85 80 78 82 79 77 78 77 79 76 81 80 71 75 79 78 73 65 68 71 78 83 81 79 73 67 58 50 58 79 91 72 59 61 56 56 64 70 80 90 89 93 90 77 80 88 90 85
39 39 34 30 23 19 20 19 21 24 23 25 26 30 31 30 31 31 33 35 34 35 33 31 33 40 45 49 54 52 57 65 63 65 65 67 69 69 69 65 68 69 68 73 76 81 84 80 80 86 82 76 79 79 78 78 77 79 79 78 71 66 71 76 75 65 61 62 67 79 81 78 73 63 58 51 55 70 84 92 69 56 61 56 63 73 80 91 90 82 85 89 84 83 84 90 90
37 33 30 26 22 23 21 20 22 23 24 25 27 28 29 29 31 31 32 34 33 35 33 33 38 40 42 48 54 55 60 61 59 63 65 68 70 68 68 67 68 67 66 70 74 79 85 80 78 82 80 75 74 77 77 76 76 77 79 75 65 62 65 73 76 71 70 72 73 78 76 72 61 50 55 60 67 68 74 87 68 55 62 61 69 77 85 91 87 83 83 84 82 77 73 79 90
36 29 27 26 22 22 21 21 22 23 25 25 27 28 27 28 30 31 33 34 34 35 32 32 38 38 43 48 52 57 59 58 57 62 66 68 68 66 66 68 69 68 66 68 72 79 83 79 79 80 79 76 73 77 77 72 75 79 79 72 66 66 68 70 73 76 79 79 77 77 71 63 56 55 66 66 61 57 62 73 62 55 60 60 71 80 89 96 94 85 79 82 77 67 65 70 84
33 26 23 24 20 20 21 22 23 23 24 23 26 26 27 28 28 29 30 33 33 32 29 31 34 35 42 46 50 54 54 56 59 63 66 66 66 65 64 66 69 69 69 68 70 79 83 80 81 81 79 74 71 76 76 71 72 78 78 72 71 75 78 71 68 78 80 72 69 73 72 68 69 69 68 59 52 56 56 53 49 51 58 61 74 87 91 94 90 72 66 81 79 66 66 67 72
28 23 22 24 21 20 20 23 24 22 21 21 25 27 28 28 26 26 28 31 31 30 29 31 31 35 43 48 51 49 51 57 61 64 66 66 66 64 63 64 69 72 73 70 71 80 84 81 79 81 78 71 71 75 74 72 71 78 81 78 79 78 78 72 70 79 79 75 70 70 72 69 69 66 62 55 51 55 49 45 46 51 64 70 78 86 83 83 82 72 65 76 81 67 65 66 63
27 22 21 24 22 20 20 22 23 21 19 21 26 28 29 28 26 26 26 28 33 31 29 32 31 36 42 47 50 43 49 59 61 65 67 67 66 65 64 63 69 76 75 72 74 79 78 76 75 76 74 70 75 80 80 77 74 78 78 76 78 74 72 73 77 79 77 82 75 67 68 60 59 62 60 58 53 51 49 57 65 64 72 77 80 81 77 80 79 76 67 64 76 71 65 66 61
26 22 22 24 23 21 20 20 22 22 19 22 27 27 30 31 27 28 26 27 36 33 29 34 34 36 37 39 43 40 51 60 60 65 66 67 67 66 64 63 70 76 74 72 75 76 73 75 75 74 73 72 76 81 83 80 76 76 72 71 72 71 70 73 73 68 70 81 75 64 63 60 64 67 65 69 66 62 60 64 73 74 76 79 81 80 80 82 74 73 72 64 72 70 61 59 57
26 24 25 24 22 21 18 19 22 21 19 23 28 27 31 33 28 31 31 29 34 32 29 33 34 35 34 36 40 42 54 60 61 64 64 66 65 63 62 65 70 74 76 76 78 77 74 77 76 76 79 78 78 81 77 74 78 76 71 70 70 69 65 65 64 62 68 78 76 69 67 69 73 73 72 77 75 75 74 69 70 75 77 76 79 82 80 79 71 66 71 73 71 62 58 63 65
28 27 25 23 21 20 16 18 19 19 19 24 28 27 29 32 32 33 32 30 30 31 31 32 33 35 36 41 43 46 56 60 61 60 61 63 60 57 58 63 67 68 71 74 76 74 71 74 72 73 78 75 75 81 75 74 80 77 76 75 70 70 67 66 69 70 73 77 78 78 78 76 75 78 80 80 78 78 78 71 68 72 74 72 75 77 73 71 69 62 63 68 65 62 69 77 77
28 26 22 21 19 17 15 15 17 17 19 23 27 26 27 29 31 31 31 32 32 33 36 35 36 39 42 45 46 50 56 58 59 57 57 59 57 55 56 61 64 62 63 65 68 70 69 70 70 71 76 74 73 80 78 77 80 76 77 80 75 77 78 76 78 77 78 81 81 82 80 78 78 83 84 77 72 72 71 68 68 72 74 71 70 74 72 65 64 62 59 61 63 67 71 72 72
23 22 22 19 16 16 16 14 16 16 17 22 25 25 26 27 29 29 29 33 34 34 36 36 37 43 46 46 47 52 54 54 55 53 55 59 58 56 57 60 62 61 60 60 61 68 70 70 72 73 78 78 73 78 76 73 79 77 74 79 79 80 82 80 82 84 84 86 85 83 79 78 80 80 82 73 66 70 72 70 70 74 78 77 73 77 78 68 65 65 63 65 66 64 63 63 67
19 21 20 16 16 17 16 15 15 15 17 21 23 26 27 27 28 28 28 32 33 30 30 32 35 41 45 45 47 50 50 52 52 50 52 58 59 57 58 59 61 62 62 60 60 68 72 71 72 73 79 76 73 79 76 72 78 76 69 74 78 78 78 78 81 83 83 84 83 80 75 75 78 75 77 75 70 72 71 68 68 70 78 82 77 75 75 68 66 67 66 68 65 61 63 67 69
19 21 17 15 17 16 15 15 14 15 17 20 23 26 27 27 28 27 28 30 27 24 26 28 31 36 41 44 46 48 48 48 50 50 50 55 59 57 58 59 60 63 65 63 61 68 73 73 72 73 78 76 76 79 75 77 80 75 72 76 78 77 76 75 77 75 75 81 79 75 72 73 74 72 72 71 69 69 67 66 65 68 73 76 75 71 70 69 66 65 66 68 67 63 66 72 75
20 20 17 16 17 16 15 14 15 16 17 21 23 23 25 29 28 26 26 26 24 21 22 25 30 35 39 42 44 46 45 45 48 49 49 52 57 57 57 59 59 61 65 64 62 68 71 73 76 76 76 77 79 77 74 80 80 75 75 78 78 76 74 74 75 71 73 81 80 75 72 69 68 66 66 67 67 66 65 65 64 67 67 68 71 68 67 69 67 66 68 71 71 68 70 74 75
20 18 16 16 15 15 13 13 15 16 18 20 21 22 27 29 26 27 24 24 26 22 23 27 31 34 37 41 43 44 44 45 46 47 50 51 54 57 56 58 59 60 63 64 64 68 69 70 76 77 75 75 77 77 76 77 77 74 75 81 81 76 73 72 72 72 73 80 81 78 74 69 66 63 63 64 65 63 63 65 65 65 64 67 69 65 66 67 68 70 71 73 74 73 72 74 75
18 17 15 14 14 12 11 13 14 16 19 19 20 24 28 26 23 26 24 25 28 24 27 31 34 35 36 40 42 44 46 46 46 47 49 50 52 55 57 59 60 60 62 65 66 69 70 69 73 75 76 75 73 74 75 75 77 76 76 82 80 76 78 72 70 72 73 75 76 79 78 72 68 64 63 64 64 64 67 68 65 63 65 69 69 65 66 67 70 73 74 75 76 76 74 75 77
15 16 14 13 12 10 10 13 15 17 18 19 23 26 26 24 25 26 23 26 30 27 31 35 36 37 37 39 41 44 46 46 47 48 49 51 52 55 58 60 60 61 62 64 66 69 71 71 73 74 74 77 75 73 75 75 78 78 77 80 75 75 80 76 75 75 72 71 70 78 82 79 75 70 69 70 69 69 74 73 68 67 68 70 69 67 69 69 70 74 77 77 76 78 77 78 77
11 13 12 11 10 10 12 13 16 17 19 21 23 25 25 26 28 27 23 27 31 32 35 36 38 40 38 39 40 44 46 45 47 49 50 52 53 55 57 59 59 60 62 64 65 68 72 74 76 77 77 80 80 77 77 79 81 80 78 78 76 76 78 78 80 77 72 68 69 77 80 81 82 77 75 79 76 74 77 76 70 69 71 74 72 70 72 73 73 77 81 78 77 80 78 79 76
9 10 11 12 12 12 13 14 17 19 22 22 20 25 28 30 29 25 25 29 31 34 37 37 39 41 40 40 41 45 47 45 47 48 49 51 53 55 55 58 59 60 62 64 65 67 71 76 77 78 80 83 84 79 77 81 80 80 79 77 77 77 78 79 78 76 73 71 75 79 75 75 80 79 78 77 75 78 78 71 67 70 74 77 76 76 76 75 76 78 82 84 82 80 76 75 73
9 10 12 14 14 15 15 16 19 21 24 21 21 30 32 32 29 23 27 31 30 34 37 37 39 40 41 41 42 47 48 47 48 47 48 51 53 55 55 57 59 61 63 64 67 68 68 73 76 79 82 85 86 76 72 76 74 75 76 75 77 77 80 79 75 75 75 76 81 84 81 76 75 76 74 69 70 77 75 68 70 75 78 77 78 82 81 77 78 78 80 84 82 77 70 68 67
9 10 12 15 15 16 15 17 19 20 24 22 23 29 27 26 25 25 31 31 30 35 36 36 37 39 41 42 44 49 49 48 48 49 49 50 53 54 54 56 57 59 62 64 68 69 69 71 75 79 83 86 84 75 70 71 70 70 70 71 75 77 78 75 73 71 72 78 81 82 85 80 70 69 72 68 66 71 73 74 75 76 82 81 76 83 84 77 78 78 78 79 77 73 68 66 65
9 11 13 14 14 15 16 19 19 20 24 23 23 25 20 19 22 28 32 30 31 34 35 35 35 39 43 43 46 49 50 50 50 50 50 51 53 53 53 55 55 56 59 61 64 68 71 73 75 76 80 83 81 75 72 70 70 69 69 70 71 76 78 74 72 70 72 79 81 79 78 73 66 69 75 68 62 66 69 72 72 73 84 80 71 82 82 74 77 76 76 76 72 71 70 72 70
10 13 16 13 12 16 19 20 18 22 26 23 23 25 19 16 21 29 30 29 30 32 33 34 35 38 42 44 46 47 48 50 51 50 51 53 54 54 54 55 56 58 59 60 63 68 72 75 78 77 77 80 78 75 73 73 72 70 72 73 74 81 81 78 77 73 75 79 80 79 69 62 63 66 70 64 58 62 60 64 72 77 83 78 75 84 79 74 79 77 77 74 68 71 73 72 73
12 14 16 12 11 15 19 21 18 20 26 25 24 23 20 19 23 28 29 28 30 31 31 33 34 37 41 44 44 44 46 50 51 51 51 53 54 54 55 55 58 59 61 63 65 70 71 73 77 76 74 75 76 76 75 75 74 75 77 75 79 82 77 80 82 77 81 81 78 77 65 56 59 61 64 63 56 57 60 70 80 80 79 83 89 89 80 77 77 76 81 78 70 73 72 69 72
14 15 14 11 11 12 15 22 20 18 24 26 24 22 20 24 27 29 29 28 29 30 30 33 35 37 41 43 42 42 47 50 50 50 50 52 52 53 54 54 58 60 62 66 67 69 70 69 72 73 72 71 74 76 77 78 75 77 77 76 82 79 72 77 76 74 82 85 80 75 64 54 55 59 63 64 59 58 67 74 81 79 69 76 93 89 80 78 74 72 79 83 81 76 70 67 70
14 14 14 12 12 11 13 20 20 19 23 24 25 24 21 28 33 31 29 29 29 30 30 32 35 37 40 42 41 41 46 48 48 49 50 51 52 54 55 54 57 59 62 65 67 69 69 68 67 70 73 71 73 77 79 76 71 74 78 83 85 78 76 70 61 67 76 80 78 66 62 64 68 70 65 66 69 69 73 73 78 86 77 77 91 86 78 78 76 75 76 81 83 79 75 70 68
12 12 13 12 11 12 12 15 17 19 23 22 22 24 22 27 34 33 31 30 31 31 30 32 34 36 39 42 41 41 44 45 44 46 48 50 53 54 55 55 56 59 61 64 67 69 71 70 67 69 74 74 75 77 78 72 65 70 77 81 77 72 78 67 58 71 70 68 72 63 66 73 74 73 70 75 79 77 77 76 78 86 86 87 89 81 74 73 74 74 71 72 73 71 75 74 70
11 11 13 11 10 11 10 12 17 19 21 20 19 21 21 22 27 32 34 32 33 33 32 33 34 36 38 41 42 42 43 41 40 44 46 49 52 54 56 56 57 58 61 64 68 71 72 72 69 69 72 75 75 74 74 69 63 66 72 74 68 65 74 68 67 77 68 64 70 66 65 69 70 74 80 82 79 79 79 80 83 82 85 88 83 78 75 73 74 72 68 70 70 64 67 71 70
10 11 11 12 12 11 10 14 19 19 18 18 19 21 22 21 23 28 33 35 34 32 32 34 35 36 38 42 44 43 42 39 38 42 45 46 48 51 54 55 55 57 60 65 70 73 73 72 70 69 68 72 73 71 72 70 65 68 70 69 63 61 67 68 72 73 68 72 74 68 67 68 70 73 81 83 78 82 81 82 88 83 84 87 80 78 79 76 76 73 72 73 71 65 62 64 68
10 11 10 12 11 11 13 16 20 23 20 18 20 23 22 22 21 22 29 34 33 31 31 32 34 37 39 42 44 44 42 41 40 42 45 46 46 47 51 53 53 54 56 62 69 74 75 74 71 68 68 68 69 72 74 72 72 71 66 65 64 62 62 66 75 72 69 75 69 69 78 76 73 74 82 87 82 83 82 81 83 76 79 83 78 77 77 75 74 71 72 70 67 68 63 62 69
10 11 11 12 11 11 16 18 21 25 22 17 19 23 22 21 20 21 27 30 30 31 30 30 33 37 39 40 42 43 43 43 43 44 45 46 46 47 50 52 53 53 54 57 64 70 73 75 72 70 70 67 68 72 74 71 71 70 66 70 72 69 67 67 75 72 68 76 70 74 86 78 76 81 78 78 79 80 81 79 76 73 77 79 76 74 72 70 71 72 72 71 71 67 59 61 70
9 10 10 11 11 12 15 17 20 23 23 19 20 26 24 20 21 24 28 28 28 30 31 33 34 36 38 38 39 41 42 43 46 46 44 43 44 45 48 51 52 53 54 55 59 64 69 73 72 69 68 67 67 70 73 72 72 73 72 75 74 71 71 66 67 64 63 72 66 69 84 78 79 87 78 75 79 77 76 75 72 72 75 77 74 71 70 68 70 76 77 77 77 69 60 61 68
10 10 10 10 10 11 13 15 19 25 28 22 22 30 28 19 18 21 26 30 31 30 33 37 39 39 40 40 40 40 39 42 45 45 41 37 39 43 45 49 51 51 53 55 58 61 65 68 68 69 69 68 65 66 71 73 76 78 73 70 67 66 66 63 61 57 55 64 61 63 80 84 86 89 84 85 82 73 72 74 73 71 72 77 75 69 68 68 72 80 79 76 77 74 68 61 61
10 9 9 10 10 11 13 14 17 24 26 20 19 29 29 19 15 17 21 27 33 35 35 37 39 41 42 40 39 38 38 39 43 44 40 35 37 40 43 47 50 50 50 54 57 60 61 63 67 71 73 69 62 62 67 71 79 81 72 67 64 62 62 60 60 56 56 70 74 71 78 84 87 84 81 86 85 76 75 78 76 70 69 75 75 69 67 71 77 79 75 76 79 76 72 65 58
10 8 8 10 10 11 12 14 17 18 18 17 17 22 28 23 17 17 19 27 35 38 36 36 36 38 39 38 36 36 37 38 41 44 41 37 36 38 42 47 49 48 49 53 56 57 59 61 65 69 71 67 60 61 64 69 79 81 73 68 65 64 62 59 60 59 62 74 76 73 75 79 81 78 78 85 84 77 76 79 75 68 68 73 73 70 69 72 77 79 79 81 80 76 74 71 65
8 8 8 9 10 11 11 12 15 15 17 21 19 19 27 26 19 19 23 30 36 36 34 34 33 35 36 36 34 34 35 36 38 41 41 40 39 39 41 44 47 47 48 52 53 54 57 59 62 63 65 64 61 62 64 68 75 77 74 71 67 65 63 60 59 60 67 75 74 73 75 76 76 77 79 83 80 75 76 74 68 65 66 70 70 65 64 65 68 75 80 77 73 72 71 68 67
7 8 9 10 10 10 11 12 13 15 19 23 20 18 25 26 19 19 26 30 30 28 26 28 30 33 33 33 33 32 34 36 35 36 39 40 40 40 40 41 46 48 48 49 51 53 56 58 61 62 62 62 61 63 66 67 71 74 75 73 69 66 66 63 61 64 72 76 73 72 75 74 75 76 77 79 77 73 72 67 60 63 65 65 67 62 60 61 62 65 70 69 67 67 69 66 65
7 9 10 10 11 11 12 12 13 18 21 21 18 15 21 26 18 15 22 26 22 17 16 18 24 30 32 32 31 31 32 35 35 35 35 37 40 41 41 41 44 47 46 47 50 53 54 56 60 63 63 61 60 61 65 66 66 71 73 72 70 68 68 67 65 66 70 73 73 71 73 74 72 71 70 72 74 69 66 63 58 61 64 65 67 64 60 59 57 60 64 66 66 65 66 67 66
7 9 10 12 14 15 16 16 17 23 24 21 18 13 17 26 21 12 14 18 16 12 11 11 16 25 31 31 30 29 31 33 35 36 34 34 38 40 40 40 42 45 45 45 49 52 53 55 57 61 64 63 62 61 63 65 64 66 70 71 71 69 69 69 67 66 65 68 71 68 68 71 70 71 69 65 64 60 60 63 61 62 65 65 65 62 60 58 56 59 63 64 63 63 64 65 68
7 9 11 15 19 22 23 22 22 25 23 18 16 13 16 22 19 13 11 13 13 11 10 10 11 17 27 31 31 29 30 31 34 36 35 34 37 38 38 39 41 46 48 48 50 49 49 53 56 59 63 63 65 65 65 66 64 63 68 71 70 69 69 69 67 66 65 67 69 66 65 69 71 73 71 64 61 59 60 63 64 66 67 66 64 61 60 61 60 60 61 61 61 61 61 61 64
7 9 12 17 20 25 28 24 23 25 20 14 13 14 18 19 16 14 12 11 11 10 10 10 9 11 18 27 31 30 30 31 33 35 35 34 36 38 37 38 41 47 49 50 51 49 47 52 55 58 62 62 65 68 68 67 66 64 68 70 70 70 70 69 68 65 64 66 68 66 64 65 68 70 68 66 64 61 61 62 65 68 68 67 66 62 61 62 64 63 62 61 60 60 61 60 60
7 8 10 14 17 21 24 22 22 22 18 14 14 18 21 19 15 13 12 11 10 9 9 9 11 14 17 22 28 30 30 31 33 35 36 34 35 38 38 39 44 48 48 47 50 52 48 51 57 60 63 62 63 69 70 69 69 68 68 70 71 71 70 68 68 66 64 65 66 65 65 66 65 63 63 65 65 63 62 64 67 68 68 68 67 64 62 62 64 65 64 62 60 62 66 66 64
8 7 9 13 13 15 17 16 16 16 16 15 16 20 19 14 13 13 12 12 10 10 10 9 12 18 20 21 24 28 29 30 32 33 35 34 34 38 39 41 44 47 46 45 49 53 51 52 59 64 66 63 62 68 72 71 72 70 69 71 72 72 72 68 66 68 67 66 67 65 66 68 67 64 65 65 64 63 64 66 66 67 68 68 67 66 62 60 62 63 64 65 63 63 68 71 69
9 9 10 11 9 11 15 15 15 16 17 16 17 21 17 12 13 13 12 12 10 10 10 9 11 18 22 23 24 26 27 29 32 32 34 35 36 39 40 40 41 42 45 46 49 54 55 55 60 66 68 63 62 68 72 72 74 73 71 73 74 72 72 68 65 67 66 65 68 68 66 69 71 69 68 65 64 66 66 66 67 67 67 67 66 66 64 61 62 62 61 63 62 61 66 72 71
9 10 10 8 8 11 13 16 17 19 20 16 15 19 18 15 15 13 10 10 9 9 9 9 9 15 22 23 25 27 26 27 31 33 34 35 36 39 39 36 37 39 42 46 50 56 60 60 60 63 65 64 63 67 72 74 77 76 74 76 78 73 70 68 63 63 64 64 68 70 66 68 74 74 70 67 66 67 68 68 69 68 68 67 65 64 64 63 63 62 59 59 59 58 61 66 69
7 9 8 9 13 16 16 17 18 20 21 18 15 16 16 15 14 12 11 10 9 9 9 8 7 12 20 21 23 27 26 26 30 32 34 35 35 36 36 32 32 37 41 46 51 56 58 61 61 57 59 63 62 63 70 77 78 78 77 79 80 77 72 69 64 64 67 67 70 70 67 70 78 76 73 72 67 65 68 70 72 70 67 67 66 64 65 65 64 63 61 58 56 57 59 61 61
6 7 7 9 12 15 15 16 17 18 20 19 17 16 15 14 12 10 11 11 10 9 9 8 7 11 18 21 22 25 27 28 28 29 33 35 33 30 30 30 29 32 40 45 48 50 51 54 59 56 55 61 62 61 69 77 78 78 80 82 82 80 77 74 72 72 71 71 72 70 69 75 79 75 75 77 71 66 70 71 70 69 66 66 67 65 64 65 65 64 63 59 56 57 59 61 60
7 7 9 9 10 11 13 14 14 16 19 19 17 16 13 11 11 10 10 10 10 9 9 9 8 8 11 17 21 24 27 30 29 29 31 33 31 27 25 28 28 30 38 42 42 44 44 45 51 54 54 57 60 61 68 75 78 78 81 83 82 82 82 79 78 76 74 75 70 65 69 76 76 73 75 78 73 70 75 75 70 68 67 67 68 66 63 63 63 64 64 63 61 61 62 62 61
7 7 8 10 10 12 15 16 14 13 16 17 16 16 13 9 9 10 10 10 9 8 8 8 8 7 7 12 19 24 27 30 30 30 29 29 30 27 24 27 29 29 35 40 38 39 41 40 43 49 51 53 54 57 66 76 78 79 81 82 83 86 84 81 82 81 80 77 67 63 70 75 75 73 70 69 66 67 75 77 74 74 73 71 71 69 63 60 61 63 65 64 63 63 63 62 60
Wind_Speed
13 13 13 9 7 4 3 3 2 3 2 5 6 6 8 8 9 9 9 7 6 7 6 7 7 5 5 7 11 11 8 5 1 1 5 8 13 14 12 12 13 14 15 16 16 17 16 16 18 18 18 17 20 20 18 19 21 21 21 19 18 18 18 18 17 16 16 15 14 14 14 13 12 12 12 12 11 11 11 10 10 10 10 10 11 12 12 11 11 12 12 12 12 11 13 15 13
14 13 12 8 8 4 2 3 1 3 4 6 7 7 8 7 8 9 8 7 8 9 8 8 8 9 10 10 10 8 8 7 3 4 9 13 15 12 13 15 15 15 15 16 16 16 14 15 17 17 17 17 19 19 17 17 18 19 19 18 17 17 17 17 17 17 16 14 14 13 13 13 12 12 11 10 10 10 10 9 9 9 10 10 10 12 12 11 11 12 12 12 12 12 13 13 11
14 12 12 8 7 5 3 3 1 4 5 6 7 7 7 7 9 10 9 10 11 10 9 9 8 7 7 9 6 5 7 7 8 8 9 13 12 12 15 16 17 17 15 15 15 17 14 16 17 15 16 17 18 18 17 16 17 17 16 16 16 16 16 16 16 16 15 14 14 13 12 12 12 11 10 9 10 10 9 10 9 9 10 10 11 11 10 8 9 10 12 13 12 11 12 10 10
14 11 11 6 4 5 4 2 1 3 5 5 6 6 7 8 10 10 10 11 11 9 8 8 7 5 4 8 8 8 9 8 9 8 8 9 11 15 16 16 18 17 16 14 15 16 14 16 17 14 15 16 17 18 17 16 16 16 15 15 16 16 16 16 15 14 14 13 13 12 12 11 11 10 9 9 9 9 9 10 9 8 9 10 10 8 6 6 7 8 10 12 11 10 10 10 10
13 10 9 6 3 1 3 0 2 4 6 5 6 6 7 9 11 11 10 10 8 8 7 6 6 6 6 7 5 6 8 8 8 8 10 10 13 17 17 18 19 17 16 15 15 15 14 16 17 17 15 14 16 17 16 16 15 15 14 15 17 16 15 15 15 13 12 12 12 11 10 10 10 9 9 8 8 9 9 9 8 7 8 8 6 5 5 5 6 6 8 10 9 9 9 10 11
11 8 8 7 4 2 3 2 4 7 6 4 7 6 8 10 10 12 10 9 7 6 6 6 7 8 6 7 7 7 6 7 8 8 11 14 16 17 17 18 18 17 16 16 15 14 14 15 17 17 16 15 15 15 14 15 15 16 14 14 17 17 15 14 14 12 10 11 11 10 10 9 9 8 8 8 8 8 8 8 7 6 7 5 5 5 5 7 7 7 7 8 8 8 8 10 11
9 5 5 6 3 3 1 5 6 7 5 5 8 8 8 9 9 11 11 9 7 5 5 6 8 8 6 7 9 8 6 7 9 10 13 16 17 17 17 18 18 18 16 16 15 14 14 15 16 16 16 15 15 14 14 14 15 16 15 14 15 16 15 13 12 10 9 10 9 10 10 9 7 7 7 7 7 7 8 9 6 4 6 5 5 6 6 8 7 8 8 7 7 8 7 8 9
7 4 3 4 3 3 2 7 6 6 6 6 9 9 9 9 8 9 10 8 6 6 6 8 8 7 7 7 8 7 7 8 10 14 16 18 18 18 17 17 18 18 17 16 14 14 15 15 15 15 16 15 14 15 15 14 15 16 16 15 13 15 14 12 12 10 9 10 9 10 9 8 7 6 6 6 6 6 7 7 5 5 6 5 5 5 7 7 6 6 6 6 7 7 8 9 8
6 4 2 3 2 2 4 6 6 6 7 7 9 9 9 9 7 7 8 7 7 7 8 8 6 7 9 9 9 8 7 9 14 17 17 18 18 18 17 18 18 18 18 16 14 15 15 14 14 13 15 16 15 15 15 15 15 15 14 15 14 14 13 12 11 10 10 10 10 10 8 7 6 5 5 4 5 5 6 7 5 5 5 5 5 6 8 8 9 8 6 7 8 8 10 11 9
4 3 3 2 1 3 5 5 5 6 7 7 8 9 9 8 6 6 7 8 9 8 8 6 5 9 12 11 9 7 9 13 16 17 17 18 18 17 17 18 18 18 18 16 15 14 13 14 14 13 14 15 15 15 15 15 15 14 13 13 14 13 13 12 9 8 8 9 9 9 7 7 6 4 3 3 4 3 4 7 4 3 4 6 7 9 10 10 12 13 10 10 10 9 9 9 10
3 3 3 2 1 3 5 5 5 6 7 6 7 8 7 7 6 5 6 9 9 9 9 6 8 13 13 11 8 8 13 15 17 18 18 17 17 17 18 18 18 18 17 17 15 14 13 14 15 14 14 15 15 16 15 15 15 13 13 13 12 12 11 12 9 7 7 7 8 7 7 6 5 4 3 2 2 1 2 5 4 4 5 8 10 12 13 13 16 16 14 13 11 9 8 7 8
3 3 3 1 2 4 5 5 6 7 7 6 7 7 5 6 6 6 8 9 9 10 10 7 10 13 12 10 7 10 15 15 16 18 17 17 17 17 18 18 18 17 17 16 15 14 13 13 15 15 15 15 16 16 15 14 14 12 12 12 11 11 10 11 11 8 8 7 7 7 6 5 4 3 2 2 1 1 2 4 5 6 7 9 11 13 15 15 16 16 14 13 11 8 8 8 9
4 2 2 1 2 3 5 5 5 5 6 5 7 7 6 6 5 7 8 9 10 10 9 7 11 11 9 10 8 11 14 15 17 17 18 17 16 17 18 18 18 17 16 16 15 14 13 13 15 16 16 16 17 16 14 13 13 12 10 10 10 11 10 9 9 9 8 7 7 6 5 5 4 4 3 2 1 2 3 3 5 7 9 10 10 13 15 14 14 14 12 11 11 8 6 8 9
4 1 1 0 0 2 4 4 3 3 5 6 7 8 7 4 4 6 8 11 9 7 9 9 12 10 9 10 8 10 13 17 18 18 18 16 16 17 17 18 18 17 16 16 14 13 12 12 14 15 15 16 17 16 14 13 12 11 9 9 10 11 10 8 9 9 8 7 6 6 6 6 5 4 3 2 1 3 3 4 5 7 9 9 10 12 13 14 14 12 10 11 12 9 7 8 8
4 2 2 1 1 2 3 4 3 2 5 8 8 9 8 4 4 6 7 10 8 7 10 11 9 6 9 11 9 11 16 20 19 19 18 17 17 16 17 18 17 15 15 15 14 13 13 13 14 15 15 16 17 15 15 13 11 11 9 9 9 9 9 9 10 9 8 7 6 6 6 6 5 4 2 2 2 3 4 4 5 6 8 9 11 12 12 13 13 12 10 10 11 10 8 8 9
3 3 3 1 1 2 3 4 3 2 5 9 10 10 9 6 5 6 5 6 9 10 9 10 7 1 6 10 11 17 21 21 20 19 19 18 17 16 17 17 16 15 13 14 13 12 13 13 14 15 15 16 15 14 14 13 12 11 9 9 9 8 9 9 9 8 7 6 5 5 5 5 4 3 2 2 4 4 4 4 5 7 9 11 12 12 12 13 12 11 10 8 9 9 9 10 11
3 5 4 1 1 2 3 5 3 2 6 9 12 11 9 9 7 4 4 5 11 12 8 9 6 0 4 9 15 22 22 21 21 20 19 18 17 16 16 16 16 15 13 13 12 12 12 12 14 15 14 15 14 13 13 13 13 11 10 10 9 9 8 8 8 7 6 6 5 4 4 4 4 4 2 2 4 4 6 6 6 8 11 12 12 12 12 12 11 10 9 6 6 8 9 10 11
4 4 3 0 1 2 3 6 4 2 6 10 12 12 9 11 10 6 6 8 11 12 8 9 6 3 6 12 19 24 23 22 21 21 21 19 17 17 17 16 16 16 15 14 12 13 13 12 14 15 14 14 14 12 12 13 13 12 11 10 10 9 9 8 8 7 6 6 6 5 4 5 4 3 3 3 4 5 6 7 8 10 11 11 10 10 9 9 9 8 7 5 5 8 8 6 7
6 4 2 1 1 2 1 5 6 2 6 10 12 12 9 10 12 9 10 10 12 12 10 10 8 8 11 16 22 24 23 23 22 22 21 20 18 17 17 17 16 16 16 15 15 14 13 13 14 15 14 14 13 12 12 12 12 13 12 10 9 9 9 9 8 8 7 6 5 5 5 5 4 3 5 6 6 6 6 7 9 10 10 10 9 9 8 8 7 7 6 7 7 7 5 4 5
6 4 3 2 1 0 2 5 7 4 5 10 12 12 9 10 12 10 10 11 12 12 10 13 12 12 14 18 22 24 24 23 22 22 21 20 18 18 17 17 17 16 16 15 15 14 13 14 13 13 13 12 12 11 11 11 12 12 11 10 9 9 9 9 8 8 7 6 5 5 5 4 4 5 6 6 6 6 6 7 8 9 9 9 9 7 6 7 7 6 6 6 5 4 3 4 6
4 4 4 2 1 2 2 4 8 7 6 10 12 12 11 11 11 10 10 10 10 11 12 14 14 16 17 19 21 24 24 23 23 22 22 21 18 18 17 17 16 16 16 14 15 14 13 13 13 13 11 11 11 10 10 10 11 11 10 9 9 9 8 8 8 8 7 7 6 6 6 6 6 6 5 5 5 5 5 5 5 6 6 6 6 5 4 4 4 3 3 4 2 3 4 5 6
4 4 7 3 1 3 2 3 8 8 8 11 13 13 11 11 11 11 12 9 6 8 12 14 14 17 19 20 21 22 23 23 23 22 22 21 19 18 17 17 16 16 16 14 15 15 14 13 13 13 12 12 12 11 10 9 10 10 10 10 9 9 8 8 8 7 7 7 7 7 7 6 6 6 5 6 6 6 6 5 4 4 4 4 3 3 2 3 2 1 2 2 3 3 4 5 7
5 5 8 6 4 5 1 4 8 9 10 12 13 12 12 12 11 10 12 6 3 4 12 14 14 18 21 22 21 20 21 21 22 23 22 21 20 19 18 17 17 16 16 15 15 14 15 15 14 14 13 14 13 12 11 10 11 11 10 10 10 9 8 8 8 8 7 7 8 8 8 8 7 7 6 6 6 6 6 5 5 4 4 4 3 3 2 2 2 2 2 2 3 4 5 6 7
8 7 8 7 6 7 5 4 8 11 11 11 11 12 14 13 10 10 12 5 4 4 11 14 15 19 22 21 20 20 20 21 23 23 22 22 21 20 18 17 17 17 16 15 15 15 16 16 16 15 14 14 14 13 12 11 11 11 10 10 10 9 8 9 8 8 8 7 9 9 9 9 8 8 7 7 7 7 6 6 5 5 5 4 3 4 3 3 3 3 3 3 4 5 6 7 8
11 9 7 7 7 7 6 5 8 11 10 10 12 13 14 13 8 10 11 6 4 7 13 14 16 19 20 20 21 20 20 21 23 23 23 22 21 20 19 17 17 16 16 16 15 15 16 17 17 16 15 14 14 14 13 12 11 12 11 10 12 11 9 9 8 9 9 9 10 10 10 10 10 9 8 8 7 7 7 7 6 6 5 4 4 4 4 4 4 4 4 5 6 6 8 8 8
10 12 10 7 6 5 5 6 9 11 9 10 14 13 14 11 7 9 12 9 8 11 15 15 17 18 18 19 20 20 19 20 22 23 22 21 21 21 20 18 18 17 17 16 15 15 16 16 17 17 16 15 14 14 13 12 11 11 11 10 12 12 11 10 9 9 10 11 10 10 11 11 11 10 8 8 9 8 7 8 8 7 6 5 5 5 4 4 5 4 4 6 6 7 7 7 7
4 9 9 7 6 4 5 7 10 11 10 13 14 12 13 11 7 7 11 11 10 13 16 16 17 17 18 18 19 19 19 21 22 22 21 21 20 21 21 19 18 18 17 17 16 16 16 17 17 17 17 15 15 15 13 13 11 11 11 11 11 11 11 11 12 12 12 11 11 12 14 13 12 12 9 7 9 9 8 9 9 8 8 5 4 5 5 4 4 4 4 6 6 6 6 6 7
4 6 6 6 5 3 6 9 12 10 10 14 13 11 12 11 9 7 12 14 12 14 16 17 16 16 17 18 18 16 18 21 23 22 21 21 21 21 21 20 19 18 18 18 17 17 17 18 18 18 18 16 16 16 14 13 13 12 12 12 12 12 12 12 13 14 14 12 12 14 16 15 14 12 10 9 9 9 8 10 10 10 9 5 4 5 5 4 4 4 4 5 6 6 6 6 6
7 8 8 7 5 5 8 10 12 11 10 13 11 9 10 12 11 8 13 15 13 14 15 16 16 15 16 17 16 15 17 21 21 21 22 22 21 21 21 21 20 19 19 19 18 18 18 18 18 18 18 18 18 17 15 14 14 14 14 13 13 14 14 14 14 15 15 14 13 14 13 14 14 12 11 11 11 11 10 10 9 10 9 6 5 5 5 4 4 4 4 5 6 6 7 6 6
9 11 9 6 5 6 10 10 13 12 9 13 11 6 8 12 13 11 14 15 15 14 14 15 15 14 15 16 15 15 17 19 20 21 22 22 21 21 22 22 21 20 18 18 19 19 19 17 18 18 19 20 20 18 16 15 15 15 14 14 14 15 15 15 15 15 15 14 15 15 13 13 14 12 11 12 13 13 10 9 10 9 8 6 5 5 5 4 3 4 5 5 6 6 6 6 6
10 10 7 7 7 6 12 11 14 12 9 15 12 5 4 10 14 15 14 16 16 14 14 15 14 14 14 15 15 15 16 18 20 21 21 21 21 20 21 21 21 21 19 18 20 20 20 18 17 18 19 20 20 20 19 18 16 16 15 14 14 14 15 15 15 15 14 13 15 15 14 14 13 12 12 13 14 14 12 11 12 10 7 6 5 4 5 4 3 4 5 5 6 5 5 5 6
9 9 7 9 7 6 12 12 14 12 10 14 12 6 3 7 13 16 14 16 16 14 14 15 14 15 14 14 15 14 15 18 21 22 22 22 21 20 20 21 21 21 19 18 18 19 20 20 18 18 19 20 21 21 21 20 18 17 16 15 14 14 15 14 15 16 14 13 15 16 16 15 13 13 12 13 14 14 14 13 13 11 7 6 5 4 5 4 3 4 4 4 5 5 5 6 6
9 8 8 10 8 7 9 11 14 12 11 14 13 7 3 5 11 14 15 16 16 14 14 15 15 15 15 14 14 14 14 16 19 22 23 23 22 20 20 21 21 21 20 19 18 19 20 20 20 20 19 20 22 22 22 21 20 18 18 17 16 16 17 15 14 15 13 14 15 15 16 16 14 13 13 13 13 14 15 13 12 11 7 4 4 5 4 3 3 4 4 4 4 5 6 7 7
8 9 9 9 9 9 9 11 13 13 12 14 14 10 4 7 8 10 14 16 16 14 14 15 15 14 14 13 13 14 14 15 17 21 24 23 21 21 19 19 21 21 20 20 19 19 19 20 21 21 20 20 21 22 22 22 21 19 18 17 16 18 19 17 16 14 12 13 14 14 15 16 15 13 13 14 14 15 15 13 11 10 9 8 6 5 4 3 3 4 5 5 4 5 7 7 7
11 11 9 9 9 9 9 10 12 16 14 12 13 12 9 8 8 10 13 14 15 15 13 14 14 15 15 14 14 14 15 15 16 20 24 23 21 21 20 19 20 21 20 20 20 19 19 19 20 21 21 21 20 21 22 22 20 18 17 15 15 18 18 18 17 14 12 13 14 15 15 14 15 14 14 16 16 15 15 15 13 10 10 9 6 3 3 3 3 4 5 6 6 7 7 7 7
14 13 11 11 10 10 11 9 11 16 14 11 12 12 11 10 11 12 13 13 14 14 13 12 13 14 14 14 14 14 15 15 17 21 24 23 22 21 20 19 19 20 20 20 20 20 20 20 21 21 22 22 21 20 21 22 19 18 17 16 16 18 17 17 16 14 15 15 15 16 15 14 16 15 14 16 16 16 16 15 13 10 7 6 4 2 4 4 3 4 6 7 8 8 8 7 6
15 13 12 13 11 10 13 10 10 14 12 11 13 12 12 11 10 11 11 12 13 13 14 13 13 13 14 14 15 15 15 14 17 21 23 24 23 22 21 20 20 20 20 20 21 21 21 22 22 22 22 22 22 21 20 20 19 18 17 16 16 17 16 15 16 16 16 16 15 15 16 17 16 15 16 16 17 18 16 12 10 10 7 5 4 3 3 3 2 3 5 6 7 7 7 7 6
14 13 12 11 12 9 10 10 9 13 12 9 11 13 12 11 9 8 11 13 13 14 15 14 15 14 13 15 16 16 14 13 16 18 21 24 24 24 23 21 21 22 21 21 21 21 22 22 22 23 22 22 22 21 19 19 18 18 16 15 15 16 15 14 15 16 13 13 15 15 17 18 16 16 16 15 15 15 13 9 9 10 8 5 4 3 3 2 2 3 5 6 6 6 6 6 5
14 12 12 10 12 9 7 9 9 9 9 8 10 11 10 11 11 10 12 13 12 14 15 15 15 15 14 15 15 16 15 14 16 17 20 24 25 25 24 21 22 22 22 22 22 22 22 22 23 23 23 23 22 22 20 20 20 19 16 14 13 13 13 12 12 13 12 12 15 14 15 16 15 15 13 11 10 10 9 8 8 8 7 5 2 2 2 2 3 4 5 6 6 6 6 6 5
14 12 12 10 12 11 8 9 11 11 10 8 9 9 8 9 11 11 12 13 12 13 15 15 15 16 16 16 15 15 17 16 17 18 19 22 25 25 24 23 23 22 22 22 23 23 22 23 24 24 23 23 23 22 21 22 22 19 16 14 12 11 12 12 11 12 12 11 13 14 13 12 11 11 11 10 9 8 7 7 7 5 4 2 1 2 3 3 4 5 5 6 6 6 6 4 3
15 16 14 11 13 13 10 10 11 12 11 8 7 7 7 9 11 11 10 12 13 13 15 15 15 15 15 16 16 16 17 17 17 19 19 20 24 26 26 24 23 23 23 23 23 23 23 23 25 24 23 23 23 22 21 22 21 18 16 15 12 13 13 13 12 12 11 10 12 12 10 8 9 10 9 9 8 8 7 7 5 2 1 1 2 3 3 3 4 4 4 4 5 6 5 4 2
14 17 17 16 14 12 13 14 11 9 10 9 8 8 7 10 14 12 9 12 15 14 15 16 15 15 15 16 17 17 17 17 17 19 19 20 24 26 26 26 25 24 24 23 23 23 23 23 23 23 22 22 22 21 21 21 19 19 19 16 13 14 13 12 12 11 10 10 9 8 7 7 9 9 8 8 7 8 8 6 3 1 1 2 2 3 3 3 3 3 3 3 3 4 3 4 3
11 15 18 19 18 13 13 16 13 9 9 9 10 9 7 9 13 12 11 12 15 15 16 17 16 15 16 16 16 17 17 17 17 18 19 20 23 25 25 26 26 25 24 23 23 23 23 23 22 22 22 22 22 21 21 21 19 19 19 16 14 14 13 12 11 10 10 8 6 5 5 6 7 7 8 8 7 7 7 6 3 1 3 3 3 3 3 3 2 2 2 2 2 2 2 4 4
12 14 17 19 19 16 13 14 13 10 10 9 11 10 8 9 9 10 12 13 15 16 17 17 17 18 19 18 18 18 18 18 16 17 19 19 22 24 25 26 26 26 25 24 23 23 23 23 23 23 23 23 22 22 21 21 19 19 18 17 16 15 14 13 11 10 10 8 6 6 5 6 6 6 7 8 8 7 7 5 3 3 3 3 3 3 2 1 1 1 1 2 2 1 2 3 3
13 11 12 15 18 17 14 12 12 12 11 10 12 12 9 9 8 8 12 14 16 17 17 18 18 19 19 19 20 20 19 19 18 17 18 19 22 25 26 26 26 27 26 24 24 23 23 24 23 23 23 22 22 22 22 21 20 19 18 18 18 16 14 12 11 11 10 9 8 7 7 6 6 7 8 8 8 8 7 5 4 4 4 5 4 4 3 1 1 1 1 2 1 1 2 2 3
12 8 8 11 14 15 14 12 10 11 13 12 14 15 10 9 9 9 11 13 14 13 14 16 18 19 20 20 21 20 19 18 18 18 18 19 22 25 26 27 27 27 27 25 25 24 23 23 23 24 24 23 22 22 22 22 21 20 20 19 18 16 14 13 12 11 11 10 9 9 9 8 7 8 9 9 9 8 7 6 5 5 5 6 5 5 4 3 2 2 2 2 1 1 2 2 3
12 8 8 9 10 11 10 9 8 10 13 12 15 17 12 9 10 10 11 11 12 12 12 14 16 18 20 20 20 21 19 17 18 18 18 20 23 25 25 26 27 27 27 27 26 25 25 24 24 24 24 23 23 22 23 23 22 21 21 20 19 17 16 15 14 13 12 11 10 10 10 9 9 8 9 9 9 8 8 7 7 6 6 6 6 5 4 3 4 4 3 2 2 1 1 2 2
13 9 10 9 7 8 7 7 8 10 11 11 16 20 15 11 10 9 10 12 15 15 12 12 13 17 19 19 19 20 19 18 18 17 18 19 21 23 25 26 27 28 28 28 27 26 26 25 25 24 24 24 24 23 24 24 24 23 22 21 20 19 18 17 16 15 14 13 12 11 10 10 9 8 8 8 9 9 9 8 7 7 7 7 7 6 4 4 3 4 4 3 3 2 2 1 2
14 11 11 11 8 8 9 9 9 9 11 12 16 19 16 12 11 13 11 10 15 15 12 13 14 15 18 19 18 18 18 18 18 17 17 17 18 19 23 26 27 28 28 29 28 28 27 26 26 26 26 26 25 25 25 25 25 24 23 22 21 20 19 19 18 16 15 14 13 11 10 10 8 8 9 9 9 9 9 9 8 8 7 7 7 6 5 5 4 4 5 4 4 4 3 3 3
15 13 11 11 10 10 11 11 9 9 11 14 15 14 13 10 10 15 16 13 15 15 13 15 14 12 13 16 18 17 18 19 18 17 17 17 17 18 22 26 26 27 29 29 28 28 28 27 27 27 26 26 26 26 26 25 25 24 23 23 22 21 20 20 19 18 16 15 13 12 10 9 8 8 9 9 10 10 10 9 9 8 8 7 7 6 6 6 5 5 5 5 6 5 5 5 4
15 14 13 12 11 11 11 10 11 11 11 14 15 12 10 10 8 10 14 15 16 15 13 14 12 11 10 12 16 17 18 19 18 18 19 19 19 20 23 25 26 26 28 29 29 28 28 27 27 27 27 27 27 26 26 26 25 25 24 23 23 22 21 21 20 18 17 15 14 12 10 9 9 8 9 9 9 10 9 9 9 9 8 7 7 7 6 6 6 6 6 6 6 6 7 7 7
13 13 14 13 12 11 10 11 12 11 11 12 12 9 8 10 7 6 8 10 12 13 13 13 12 11 10 10 14 16 17 18 18 19 20 20 21 23 24 25 26 26 28 29 29 29 29 28 27 27 27 27 27 26 26 26 25 24 25 25 24 22 21 21 20 18 17 16 14 12 11 10 9 8 8 9 9 9 9 8 9 9 8 8 8 7 7 6 7 7 7 7 7 7 8 8 8
10 13 15 14 14 13 12 12 11 10 12 11 9 8 9 10 9 10 13 13 13 13 13 14 13 12 12 12 13 15 16 17 18 18 19 20 21 23 27 27 27 28 28 30 30 29 29 29 27 26 26 27 27 26 26 25 25 25 25 26 25 24 24 23 21 20 18 16 15 13 11 10 10 9 9 9 9 9 9 9 9 9 9 9 8 8 8 7 7 8 8 8 9 8 8 9 9
9 11 15 14 14 13 12 12 11 10 12 10 10 12 11 10 9 11 16 18 17 16 15 15 13 12 14 13 14 16 17 17 18 19 19 20 21 23 28 30 29 30 30 30 30 29 28 28 28 27 26 27 27 26 26 25 24 24 25 26 26 26 25 23 21 19 18 17 16 14 13 11 10 10 10 10 9 9 9 10 9 9 9 9 9 8 8 8 8 8 8 9 9 9 9 9 9
15 11 13 13 12 12 11 11 11 13 12 10 13 14 12 11 8 8 12 14 15 16 15 16 13 12 14 14 14 17 17 17 17 18 18 19 20 22 27 30 31 31 30 29 30 29 28 28 28 29 28 27 28 26 24 23 23 23 23 25 26 25 24 22 21 19 18 18 17 15 14 11 11 12 12 11 10 10 10 10 10 9 9 9 9 9 9 9 9 8 8 9 10 10 10 10 9
20 14 11 12 11 11 12 11 9 11 12 10 13 14 11 10 10 11 12 11 12 13 14 13 10 10 12 12 13 15 15 16 16 17 18 19 21 24 29 32 32 32 30 29 29 29 30 30 28 30 29 27 28 27 24 23 23 22 22 23 24 24 23 22 21 20 20 18 17 16 14 12 12 14 13 11 10 9 9 9 9 9 9 9 9 10 9 9 9 9 8 9 9 9 10 10 10
16 15 13 13 11 10 12 13 11 11 11 10 11 12 9 8 10 13 15 13 12 12 13 13 10 10 12 12 12 13 14 16 17 17 18 20 21 25 31 33 31 31 29 29 30 30 31 31 29 30 30 28 28 28 26 24 23 23 23 23 24 24 24 23 23 23 21 19 18 16 14 13 14 13 11 9 9 9 8 8 8 8 9 9 9 10 9 9 9 9 9 9 9 10 10 10 9
15 14 14 14 12 10 12 15 14 13 12 11 11 11 9 8 7 9 13 14 14 14 15 14 14 15 12 9 11 13 14 16 18 18 19 19 19 23 29 31 30 31 30 30 30 30 30 31 30 29 30 30 29 28 27 25 24 24 24 25 25 26 26 25 23 22 20 18 18 16 14 13 11 11 10 8 8 9 8 8 9 10 10 10 10 10 10 10 10 10 9 9 10 10 11 10 10
Wind_Direction
146 153 155 161 165 179 210 242 263 179 179 83 92 99 89 90 108 111 111 124 108 88 81 79 84 94 96 91 99 91 51 32 60 120 98 100 111 124 138 132 131 130 134 139 137 133 130 132 129 131 133 133 132 124 122 125 124 128 132 134 135 135 137 134 129 129 124 117 112 112 114 110 104 97 92 89 86 84 81 81 78 75 73 68 63 64 61 55 48 44 45 45 48 46 45 46 41
150 156 162 176 176 194 242 211 269 103 104 84 87 88 101 113 112 101 99 104 97 96 93 89 89 88 92 99 109 101 62 49 77 84 87 107 114 123 135 132 130 130 135 135 137 134 130 138 137 133 128 129 130 124 127 130 127 126 129 133 136 136 136 136 133 130 122 117 118 113 107 103 100 95 93 91 87 85 83 80 74 70 70 68 61 61 57 50 43 36 40 43 42 41 43 45 39
157 159 166 184 198 222 269 221 243 79 87 83 90 95 114 113 97 92 94 96 103 113 109 106 95 87 117 116 83 72 85 83 95 94 101 121 124 133 137 133 131 131 133 130 138 138 129 139 139 129 122 122 126 128 132 135 134 131 131 131 134 138 138 138 135 133 126 123 122 114 106 101 97 94 94 92 90 87 83 78 69 64 65 64 57 55 53 49 45 37 38 43 39 39 41 39 36
161 167 174 191 225 225 261 242 350 64 87 91 96 103 113 103 97 95 100 107 119 129 116 111 90 53 91 102 78 78 99 99 95 101 118 128 128 136 139 136 132 132 137 132 137 136 128 136 135 131 127 124 129 135 135 134 136 134 134 132 130 134 137 138 135 134 130 126 120 110 104 100 96 94 93 91 90 85 78 73 65 59 60 62 59 56 54 53 53 48 45 47 39 30 33 30 29
165 178 191 219 258 267 282 216 35 52 70 83 101 106 111 108 112 110 109 119 131 127 119 121 98 79 72 69 76 96 106 110 109 115 124 123 127 136 141 140 136 135 138 134 135 135 133 136 135 139 137 131 131 134 136 134 136 135 137 138 134 131 133 137 135 133 130 129 123 113 106 103 104 99 91 87 85 78 72 67 61 55 59 64 65 54 39 37 38 44 52 57 49 29 24 22 16
172 184 200 232 274 324 289 110 71 74 54 44 100 106 109 116 123 122 121 121 119 110 119 123 110 117 97 60 69 92 106 123 131 132 128 127 132 138 141 143 140 137 135 132 133 136 138 138 138 142 144 141 134 132 137 135 135 136 137 140 138 132 128 135 135 132 131 132 129 122 116 112 110 101 89 84 79 73 66 59 56 62 66 58 44 34 17 18 16 22 41 50 48 36 20 17 9
178 188 198 230 249 245 288 76 62 78 59 25 95 111 113 120 127 132 132 128 122 116 118 115 122 122 106 103 93 83 90 113 130 131 129 129 133 139 143 145 142 138 136 135 134 137 142 139 139 143 147 147 139 136 138 139 139 137 135 133 137 134 130 132 128 130 137 135 133 126 118 116 113 103 91 82 77 68 62 56 51 57 57 40 15 8 12 22 16 12 27 30 30 28 11 9 5
192 225 232 253 237 202 39 72 63 65 77 56 87 106 112 121 132 141 141 139 135 129 128 131 137 109 107 142 115 98 104 102 118 125 129 131 135 141 145 146 142 140 139 139 138 142 145 139 141 146 147 145 143 144 143 145 143 140 139 133 136 137 133 132 127 135 144 138 134 123 116 115 111 105 91 79 74 62 61 58 44 37 39 20 353 359 23 24 6 360 12 11 12 10 358 357 356
202 243 251 261 270 130 76 78 82 75 90 89 91 102 114 128 137 142 141 134 131 133 133 140 149 117 129 140 110 119 124 110 121 126 132 134 139 143 146 147 143 141 141 142 141 145 146 141 144 145 146 146 145 147 147 148 145 143 143 139 142 142 138 136 137 149 149 143 136 122 121 120 113 107 92 78 65 59 62 53 35 28 23 352 342 9 24 12 358 358 358 356 356 354 354 354 350
199 237 260 257 312 83 94 83 88 84 85 89 96 113 125 134 140 142 141 133 135 135 124 131 144 128 133 129 112 124 128 129 133 131 137 139 141 144 144 147 144 142 143 142 142 145 146 145 149 150 149 148 147 149 152 150 147 147 145 145 146 146 142 138 145 155 145 140 135 128 129 123 122 127 108 88 63 63 66 52 26 9 5 339 349 10 14 9 7 6 359 355 348 339 343 350 346
212 196 251 259 67 65 79 84 95 93 94 96 99 119 129 133 139 136 136 134 138 133 129 144 134 128 133 130 114 114 128 140 141 137 142 142 143 145 144 145 145 144 143 143 144 145 149 152 153 154 151 151 152 152 157 153 149 149 148 150 147 148 148 143 148 150 137 132 132 135 136 135 148 158 126 103 84 83 60 44 1 349 356 346 359 6 5 5 10 8 358 355 346 327 321 335 345
235 183 227 241 82 65 66 79 93 99 115 119 117 129 134 137 139 135 139 138 141 141 148 160 137 136 139 134 120 126 142 148 143 142 144 146 146 147 146 145 146 147 146 147 148 145 152 155 151 156 156 154 155 155 159 156 152 151 152 155 149 148 153 152 154 150 145 144 142 143 145 154 166 160 138 155 188 302 12 22 350 339 345 353 1 1 1 3 8 5 356 352 343 325 318 336 354
243 217 227 177 66 76 77 77 92 111 125 120 128 138 145 149 144 142 145 143 150 154 154 150 144 150 137 126 129 141 152 151 147 146 148 150 148 148 149 149 149 150 151 152 152 150 154 154 151 155 156 156 158 159 161 162 159 154 156 158 152 153 159 162 161 156 155 154 149 149 153 160 163 167 179 218 271 347 345 357 342 332 341 354 3 358 355 358 5 3 359 360 351 344 343 359 10
240 244 252 151 118 126 84 87 114 129 118 117 131 140 157 156 133 142 149 149 151 145 138 142 154 156 134 129 141 154 158 153 151 150 151 151 149 151 152 154 151 150 155 157 155 154 157 156 157 154 151 158 163 165 168 170 165 159 165 163 162 164 167 168 161 162 158 151 158 164 167 172 178 189 204 244 300 322 320 339 333 333 344 352 4 359 350 355 8 8 6 10 3 359 12 28 25
240 243 241 240 178 167 110 104 111 88 110 130 139 144 156 129 129 155 161 153 129 113 130 148 167 156 147 155 159 159 155 154 154 151 153 151 150 151 152 155 153 152 157 159 157 156 158 157 161 158 156 163 168 170 168 169 168 167 174 171 173 170 170 169 160 165 159 152 173 183 189 195 197 209 225 274 291 302 317 336 329 339 351 354 2 357 351 3 17 20 14 15 11 5 16 35 30
238 264 235 190 209 188 157 142 115 93 116 136 143 152 154 129 156 156 133 136 122 135 149 159 175 142 156 162 155 153 151 153 155 152 152 151 151 152 154 157 154 155 157 160 160 158 161 156 158 162 164 168 171 173 169 169 171 171 174 175 179 170 170 175 168 171 164 160 183 202 221 217 213 229 217 277 292 303 313 320 327 345 353 353 0 353 351 5 20 30 27 21 16 7 11 27 29
221 257 242 173 189 198 160 149 122 95 121 142 150 161 157 138 162 135 102 144 142 154 165 161 163 83 158 145 145 151 150 153 155 154 154 153 155 156 159 161 159 160 160 164 167 165 165 159 160 162 165 171 170 174 176 172 168 168 172 175 180 176 175 180 179 180 176 176 194 215 233 226 229 244 232 265 282 295 303 313 334 349 351 352 359 354 354 5 13 29 39 37 26 22 23 26 28
211 244 242 143 153 172 166 150 125 113 142 153 159 167 162 147 160 148 155 166 149 158 161 158 158 125 128 128 143 150 152 157 159 160 159 160 162 162 165 166 166 168 167 169 171 170 167 165 170 169 170 175 174 176 175 168 164 168 171 175 180 180 178 181 185 187 192 195 201 213 225 233 242 263 271 270 274 287 299 317 338 347 348 350 359 360 5 13 12 25 43 57 54 51 48 40 29
220 251 235 191 137 102 181 165 149 176 152 154 166 171 167 153 157 161 173 163 154 168 160 165 167 138 130 135 146 151 156 163 164 166 165 166 167 166 169 168 170 172 171 171 172 174 172 171 174 174 175 175 174 170 166 164 169 174 172 173 178 180 181 184 192 193 200 206 205 217 229 244 254 264 265 264 275 290 308 329 343 348 350 352 4 12 16 21 23 29 42 55 52 53 59 51 34
226 246 235 185 171 102 225 200 176 175 144 158 170 169 168 152 153 169 178 163 171 185 168 174 176 153 146 147 151 154 161 167 169 173 169 169 171 170 172 171 173 174 174 173 173 177 178 175 173 176 176 173 175 169 165 168 171 175 173 174 177 181 186 190 198 197 201 206 207 222 230 239 248 251 260 270 283 293 310 327 337 349 354 351 4 18 17 18 30 27 29 45 43 34 30 23 17
217 217 238 157 117 267 194 220 201 177 161 169 166 167 169 153 157 174 176 171 185 197 181 181 177 161 156 153 156 159 165 171 174 178 174 172 175 174 175 175 176 174 176 177 175 178 182 180 176 177 177 177 182 177 172 173 172 177 181 179 180 184 190 195 203 203 205 212 214 224 230 236 246 251 260 270 280 286 297 308 316 339 349 343 359 16 11 12 29 22 13 28 11 359 6 2 358
230 211 248 247 272 286 136 222 216 182 177 171 165 172 163 154 170 176 178 181 185 189 180 181 174 161 159 158 160 164 169 174 177 181 180 178 179 179 179 179 179 177 178 181 179 181 184 184 181 180 183 184 188 186 180 180 178 181 184 184 187 191 194 200 208 211 213 218 221 229 233 237 242 246 253 259 269 277 284 296 301 316 323 325 345 350 355 359 356 351 353 352 336 337 344 348 349
236 217 233 244 254 268 230 222 211 188 188 175 169 170 154 163 178 177 188 177 80 170 172 171 167 161 161 160 163 168 174 178 180 183 183 182 183 184 184 182 183 180 182 185 181 183 185 185 186 185 187 188 192 193 187 190 192 189 189 191 195 198 200 208 215 217 218 220 224 231 236 238 239 240 243 249 258 265 272 283 291 298 301 303 309 302 304 313 305 310 315 313 322 321 325 336 338
221 228 217 224 233 248 251 227 203 194 193 176 170 165 161 177 175 175 193 157 75 168 162 160 159 160 163 162 167 173 176 180 183 185 186 187 188 189 188 186 187 185 187 189 184 186 189 188 189 189 189 191 194 197 194 196 199 197 195 196 201 202 205 214 218 221 225 226 227 231 235 241 241 239 240 244 251 258 265 268 271 275 280 286 285 280 279 280 282 287 291 298 311 316 322 329 332
211 231 230 228 233 250 252 225 199 193 191 176 171 167 169 181 166 173 186 147 123 159 151 155 158 160 167 168 171 174 178 182 184 187 188 191 192 192 193 191 191 190 191 191 189 191 193 192 192 192 191 192 196 199 200 200 201 201 198 202 209 209 212 218 220 224 228 229 229 231 235 239 241 240 238 241 248 256 265 263 259 258 259 264 269 266 264 271 277 279 285 298 309 317 322 327 332
204 219 233 244 255 272 250 214 193 187 184 175 172 171 173 174 159 174 178 147 136 152 151 158 160 165 171 173 175 175 180 184 185 187 189 192 194 194 196 196 195 195 195 194 196 197 196 196 195 195 194 195 198 201 204 204 205 204 202 207 212 211 214 220 224 226 227 229 229 228 231 235 240 243 241 245 248 249 260 265 265 264 257 249 257 265 263 265 272 279 289 302 312 317 321 325 327
205 217 235 258 281 286 230 197 181 181 175 175 177 174 168 165 174 184 168 152 147 154 158 161 163 169 174 176 177 176 181 186 187 188 190 192 195 198 199 200 199 198 199 199 202 201 199 199 198 198 197 196 200 204 206 207 209 208 207 209 211 212 214 218 225 229 229 229 228 229 230 232 237 239 242 255 255 251 256 261 265 273 275 267 267 273 271 270 276 286 298 306 312 313 316 320 322
238 234 240 242 254 226 200 183 172 171 172 182 180 167 162 168 199 196 156 158 161 159 162 166 169 170 175 179 178 178 184 187 188 189 192 194 196 199 201 202 202 200 201 204 205 205 203 202 201 200 199 200 203 205 206 209 213 212 211 212 214 216 215 217 223 229 231 229 230 236 234 233 237 238 240 252 259 259 258 259 263 269 272 265 269 277 271 272 278 286 291 297 301 305 313 317 319
238 239 242 223 221 200 185 174 171 174 176 180 169 160 176 187 202 182 151 162 167 166 166 169 173 172 174 180 179 182 187 188 190 193 195 196 196 198 200 201 202 201 203 206 207 208 206 204 204 201 201 203 205 206 207 212 215 215 216 216 218 219 218 219 222 225 228 227 232 239 238 237 242 246 249 254 259 259 256 259 263 267 268 258 255 257 251 256 268 284 285 285 296 304 311 314 313
232 232 240 227 224 207 180 171 177 182 174 171 170 184 198 194 195 168 153 166 170 172 174 173 176 174 175 180 182 185 188 189 191 194 195 195 198 200 201 202 202 203 204 205 207 209 208 206 206 203 202 204 205 206 209 213 216 218 220 220 222 223 223 224 224 226 228 229 234 238 238 242 247 251 256 257 255 257 258 260 265 268 263 254 252 245 252 264 269 287 287 288 300 304 307 310 310
226 225 229 230 235 187 166 173 181 179 163 173 192 228 198 178 179 168 161 170 175 180 180 179 180 176 179 180 184 188 187 191 193 194 195 194 196 199 201 201 201 204 205 205 207 208 209 207 207 205 204 205 205 206 210 215 217 219 221 223 226 226 228 229 229 231 229 229 234 237 237 242 247 247 253 255 252 255 256 258 266 267 259 263 269 255 271 284 280 286 287 293 302 304 308 304 301
217 218 213 219 228 164 159 178 187 176 158 180 203 231 210 166 165 168 170 173 179 189 184 183 185 181 183 182 184 189 186 190 194 195 195 194 196 197 199 200 200 202 204 206 205 206 209 209 208 207 206 205 205 208 211 216 220 221 222 225 227 227 230 232 234 234 230 230 235 238 240 240 241 244 254 257 253 254 256 261 263 256 257 281 282 265 276 282 276 280 279 293 304 305 303 295 293
208 216 222 209 200 180 170 182 192 182 161 182 203 223 222 147 156 170 175 178 183 194 191 187 189 184 185 185 186 187 185 188 193 196 196 195 197 197 197 198 198 200 202 205 204 204 207 209 210 211 209 206 206 209 212 217 221 221 223 225 228 231 233 235 238 236 234 238 236 238 243 242 240 245 255 257 257 260 263 266 260 250 255 265 251 250 263 273 279 282 273 280 294 294 294 294 295
201 209 230 219 202 201 179 171 190 189 174 186 200 220 219 118 145 183 181 183 188 196 198 191 190 188 185 188 188 187 186 189 193 195 195 195 196 197 198 197 197 199 201 204 204 205 207 208 210 212 213 211 209 210 213 218 220 221 224 226 230 237 239 241 244 241 238 238 237 240 243 245 247 250 257 261 264 265 263 262 260 263 263 239 222 230 243 265 284 291 286 277 281 289 293 296 296
206 203 218 223 217 218 193 167 180 190 191 195 197 216 215 141 150 197 188 188 196 200 202 196 192 190 186 188 192 189 189 193 194 193 193 194 195 195 197 197 198 199 201 203 204 206 207 208 210 211 215 215 212 212 214 218 220 221 222 218 225 238 241 241 243 244 243 240 240 243 239 241 249 250 257 260 257 254 257 260 258 263 260 232 205 218 257 285 293 299 300 290 288 287 285 289 291
214 209 214 219 213 213 206 186 178 187 195 202 202 218 218 183 175 190 185 186 201 206 204 203 198 193 190 190 193 192 193 197 193 191 191 191 193 194 196 198 199 201 202 203 204 206 207 208 209 211 214 215 214 214 214 216 217 219 220 216 222 234 237 236 237 236 240 243 243 241 238 242 247 248 251 251 249 248 251 259 254 244 244 226 202 239 278 297 307 310 303 292 291 286 277 273 277
223 217 217 223 225 211 196 187 179 191 203 202 207 222 225 214 194 183 181 183 196 208 207 207 203 199 196 193 194 194 196 198 191 190 191 191 193 193 194 197 199 201 202 203 205 207 209 209 210 212 212 212 213 213 212 214 215 216 222 223 225 231 230 230 234 231 234 242 241 236 238 244 248 248 246 248 255 251 242 246 244 228 223 219 215 242 266 283 300 301 293 284 279 279 276 270 269
229 225 219 220 234 223 180 171 179 200 216 203 202 224 229 227 218 190 188 190 194 203 207 209 207 204 202 198 196 194 195 195 189 190 192 193 195 194 195 198 199 201 201 203 206 208 210 211 212 213 213 211 212 214 213 213 214 214 221 226 228 233 231 230 236 233 227 231 237 236 231 233 238 240 239 247 256 246 231 234 231 219 214 209 217 242 263 277 281 276 276 272 268 270 275 275 274
227 229 228 220 226 220 177 180 186 197 225 212 198 224 234 229 232 215 199 201 201 203 207 210 208 206 205 203 199 195 195 193 189 189 193 196 197 197 198 200 202 203 202 203 206 209 210 211 212 212 214 213 213 214 213 213 216 216 222 228 228 234 239 237 238 234 225 227 240 240 227 227 232 233 237 244 243 233 228 226 215 214 218 216 232 270 280 281 276 269 260 262 268 267 266 264 262
227 230 230 227 225 215 193 194 193 195 223 230 206 220 237 228 229 224 212 212 208 203 209 212 211 209 206 204 202 199 197 193 190 190 193 197 199 199 201 202 203 204 204 205 206 208 210 212 211 210 212 213 214 214 214 218 220 218 220 226 227 233 242 247 246 236 226 233 243 236 229 235 233 231 238 235 227 225 220 208 198 208 227 239 287 285 283 277 266 263 255 255 260 265 273 268 251
227 231 231 234 227 213 203 196 191 201 218 223 210 223 240 232 229 223 218 222 215 205 208 210 211 211 208 206 204 203 201 196 193 194 195 197 199 201 202 202 203 204 206 207 207 209 211 213 212 211 211 213 216 215 216 220 221 218 218 218 220 225 233 240 244 237 226 231 237 227 223 227 219 222 228 220 221 222 208 198 198 207 249 278 281 268 275 274 265 259 257 258 251 259 284 292 275
225 226 230 240 235 216 211 206 194 208 221 208 211 233 240 235 237 224 207 218 217 205 204 206 207 206 207 208 206 206 205 200 197 199 199 198 200 202 202 203 204 205 207 208 209 210 211 213 213 211 211 213 216 216 217 219 220 221 219 215 216 220 224 228 233 233 227 229 232 225 220 210 208 217 215 210 216 209 196 197 203 246 291 248 239 253 258 263 264 251 254 269 254 250 274 283 282
229 220 222 234 239 232 222 213 203 217 229 210 211 233 244 241 240 223 208 219 217 206 205 205 203 203 205 208 207 207 207 204 201 202 202 201 200 201 202 202 204 206 207 208 210 211 212 213 210 209 212 215 217 217 216 216 219 221 220 221 225 224 227 227 226 227 226 228 226 221 221 213 214 220 214 209 203 193 193 199 203 259 257 230 219 231 247 264 269 247 253 264 255 250 256 266 274
231 225 220 222 230 235 227 214 213 226 234 221 212 222 245 251 240 213 207 218 217 210 209 207 205 205 204 207 208 207 208 206 203 203 204 203 200 200 201 201 203 206 206 207 209 210 211 212 210 211 214 216 215 215 214 213 216 220 223 228 228 227 230 228 222 222 223 227 228 224 219 214 220 223 215 209 202 197 199 202 222 254 240 222 215 221 236 259 254 234 223 207 214 247 257 264 273
229 236 235 221 221 229 229 222 221 224 230 229 218 218 237 249 239 208 201 210 215 214 213 212 210 208 206 207 208 207 207 207 206 205 204 203 201 199 199 200 202 204 205 206 207 208 210 211 211 211 211 212 212 212 212 211 214 219 224 227 225 224 228 226 223 220 217 218 223 226 223 216 221 225 218 213 208 203 202 214 243 249 230 218 216 218 216 197 187 214 191 181 196 226 249 268 265
223 235 244 225 219 225 229 233 232 227 228 228 218 212 222 245 234 213 208 213 217 220 223 219 213 210 208 206 207 206 205 206 207 207 204 202 201 198 198 198 200 202 204 205 205 207 208 209 210 210 209 208 209 210 210 210 213 217 220 224 223 220 220 220 221 218 213 214 218 223 223 219 220 224 222 218 213 206 206 226 242 235 225 218 216 216 207 188 191 203 188 171 187 219 231 251 258
217 221 228 223 222 225 230 236 240 239 232 226 226 218 214 238 239 218 212 218 226 231 232 227 216 213 211 206 204 203 201 203 204 206 205 203 201 198 197 197 198 200 202 204 205 205 206 208 210 211 211 209 208 209 210 211 213 216 220 222 221 220 219 217 217 216 215 216 217 220 221 219 219 222 224 218 211 210 216 228 233 225 217 215 214 212 207 201 192 185 177 164 167 197 218 238 263
216 218 222 220 212 215 226 227 229 242 234 220 232 231 222 229 243 237 214 208 232 244 239 235 223 215 215 209 205 201 198 199 198 202 205 203 201 199 197 197 197 199 201 203 205 204 205 208 210 212 214 213 212 211 211 212 214 217 220 222 221 221 222 219 216 215 217 217 218 220 220 220 220 217 217 214 212 215 221 225 225 218 212 211 212 207 204 208 196 178 173 171 168 181 209 237 264
215 217 219 217 207 205 215 217 215 231 235 225 230 232 228 229 236 248 238 209 229 243 240 242 235 220 214 207 203 201 196 195 194 197 201 202 203 200 198 198 196 197 199 201 203 204 206 208 209 212 214 214 213 213 213 213 215 217 219 221 222 222 223 222 219 216 217 217 217 219 220 221 219 214 212 213 214 216 219 222 220 215 210 208 207 203 198 200 200 194 184 181 184 190 206 218 239
210 210 211 214 212 211 212 217 220 225 230 229 228 229 234 237 230 238 243 234 234 239 237 242 247 240 224 206 200 199 195 194 193 193 195 200 203 201 199 199 197 197 198 200 202 204 206 207 209 212 213 213 214 214 214 213 214 217 218 220 220 220 220 220 220 219 217 217 217 220 225 225 224 224 221 220 217 216 220 222 216 210 207 206 205 203 202 202 204 208 203 199 203 203 209 216 229
207 209 214 220 219 221 218 215 221 226 228 222 217 219 230 238 232 227 236 240 240 241 240 241 244 240 230 211 198 195 195 195 191 189 191 195 198 199 199 199 198 198 198 201 202 203 206 207 207 209 211 212 213 214 214 213 213 215 217 218 219 219 217 217 218 218 217 217 217 221 227 229 232 236 233 229 225 222 223 220 211 206 205 206 205 205 208 210 211 216 218 219 221 218 217 221 229
203 208 217 221 220 227 233 231 232 236 236 224 212 214 229 240 245 225 226 237 234 233 236 237 233 220 214 211 202 197 197 195 193 190 189 190 192 195 197 199 198 198 200 203 202 202 204 206 205 206 209 211 212 213 213 213 212 213 215 217 218 217 216 215 216 215 215 215 215 219 224 227 231 236 233 229 227 226 224 216 208 206 206 207 207 209 214 218 219 223 228 230 234 233 228 231 237
193 205 217 220 220 228 235 234 242 248 239 229 212 214 228 236 242 232 230 237 234 229 231 235 234 216 204 206 202 200 199 195 195 193 187 185 187 191 195 199 199 199 200 202 202 202 202 203 204 204 205 209 211 212 213 212 210 211 214 215 215 216 216 215 215 214 214 214 213 214 219 224 225 224 222 222 221 218 215 210 207 206 208 211 212 211 215 220 222 228 236 240 243 245 242 241 245
201 203 210 213 221 233 240 231 227 232 234 234 223 222 227 228 231 231 231 236 238 237 239 241 237 216 206 207 201 200 201 196 194 193 188 184 186 190 195 199 200 199 199 200 200 199 199 201 204 204 206 208 209 210 211 210 207 207 211 212 212 214 214 215 217 216 214 213 212 211 216 221 217 211 209 209 209 206 205 205 207 210 210 214 217 217 218 220 224 232 241 247 249 252 252 251 251
223 218 202 204 215 219 226 230 227 225 228 235 233 230 232 231 228 221 217 224 231 232 235 238 228 212 211 211 202 199 199 196 193 193 190 187 189 191 195 200 201 199 199 199 197 197 199 201 203 207 209 207 209 210 209 206 204 204 207 208 209 210 211 212 213 212 211 210 209 212 216 214 209 210 208 202 200 202 202 202 206 212 215 217 220 222 223 222 226 234 242 250 252 250 249 250 252
222 230 211 210 221 216 216 224 231 234 232 231 233 232 229 229 235 233 221 220 229 232 234 233 220 210 215 211 202 199 196 195 194 193 191 191 194 195 197 201 201 199 197 197 198 199 202 204 203 207 209 207 208 209 206 204 202 203 203 203 205 205 203 201 199 201 206 206 206 210 211 206 210 215 206 197 201 201 199 203 210 218 221 221 222 225 228 227 229 234 241 252 257 252 248 247 250
206 219 217 213 215 216 223 223 221 232 239 236 236 236 226 218 224 232 234 235 238 244 247 244 240 237 229 214 203 195 191 194 194 192 193 194 197 199 199 200 200 199 197 198 201 203 205 207 206 205 206 206 207 206 205 203 200 200 199 198 199 198 194 192 191 196 198 197 202 210 212 210 213 212 198 192 204 204 201 207 216 226 226 225 226 229 232 232 231 235 240 249 255 254 250 247 247
204 205 212 217 211 207 221 224 220 225 232 236 242 242 236 224 198 205 230 239 235 236 241 240 241 245 240 221 203 192 189 194 193 192 195 195 197 201 200 198 198 198 198 199 203 204 207 209 208 205 205 206 207 205 203 200 197 198 197 196 194 190 189 187 183 183 181 183 195 205 210 210 204 201 198 207 227 223 216 219 223 231 233 229 230 231 234 236 237 238 239 244 249 248 245 244 244